Skagway, AK

4:07 AM AKDT on August 23, 2017 (GMT -0800)
Skagway

Weather History for PAGY - April, 2013

Change the Weather History Date:

Saturday, April 27, 2013

  Actual Average Record
Temperature  
Mean Temperature 34 °F -  
Max Temperature 37 °F 50 °F 72 °F (2003)
Min Temperature 32 °F 35 °F 27 °F (1966)
Degree Days  
Heating Degree Days 30    
Moisture  
Dew Point 28 °F    
Average Humidity 79    
Maximum Humidity 89    
Minimum Humidity 52    
Precipitation  
Precipitation 0.01 in - - ()
Sea Level Pressure  
Sea Level Pressure 29.69 in    
Wind  
Wind Speed 2 mph (ENE)    
Max Wind Speed 13 mph    
Max Gust Speed 16 mph    
Visibility 5 miles    
Events Snow    
Averages and records for this station are not official NWS values.
T = Trace of Precipitation, MM = Missing Value Source: NWS Daily Summary

Daily Weather History Graph

Daily Weather History Graph

Search for Another Location

Airport or City:

Trip Planner

Search our weather history database for the weather conditions in past years. The results will help you decide how hot, cold, wet, or windy it might be!

Date:

Astronomy

Apr. 27, 2013 Rise Set
Actual Time 5:11 AM AKDT 8:47 PM AKDT
Civil Twilight 4:21 AM AKDT 9:38 PM AKDT
Nautical Twilight 3:09 AM AKDT 10:52 PM AKDT
Astronomical Twilight 1:31 AM AKDT 12:26 AM AKDT
Moon 11:55 PM AKDT (4/27) 6:10 AM AKDT (4/27)
Length of Visible Light 17h 16m
Length of Day
15h 36m
Waning Gibbous, 94% of the Moon is Illuminated
Apr 27
Waning Gibbous
May 2
Last Quarter
May 9
New
May 17
First Quarter
May 24
Full

Hourly Weather History & Observations

Time (AKDT) Temp. Windchill Dew Point Humidity Pressure Visibility Wind Dir Wind Speed Gust Speed Precip Events Conditions
12:53 AM 32.0 °F 28.7 °F 28.0 °F 85% 29.50 in 10.0 mi NNE 3.5 mph - N/A   Overcast
1:53 AM 32.0 °F - 28.0 °F 85% 29.52 in 10.0 mi Calm Calm - N/A   Overcast
2:53 AM 32.0 °F - 28.0 °F 85% 29.53 in 10.0 mi Calm Calm - N/A   Overcast
3:53 AM 32.0 °F - 28.0 °F 85% 29.56 in 10.0 mi Calm Calm - N/A   Overcast
4:53 AM 32.0 °F - 27.0 °F 82% 29.59 in 10.0 mi Calm Calm - 0.00 in   Overcast
5:53 AM 32.0 °F - 27.0 °F 82% 29.60 in 10.0 mi Calm Calm - N/A   Overcast
6:53 AM 33.1 °F - 28.0 °F 82% 29.63 in 10.0 mi Calm Calm - N/A   Overcast
7:53 AM 34.0 °F - 27.0 °F 75% 29.66 in 10.0 mi Calm Calm - N/A   Overcast
8:53 AM 35.1 °F - 23.0 °F 61% 29.67 in 10.0 mi Calm Calm - N/A   Overcast
9:53 AM 36.0 °F 28.0 °F 21.0 °F 55% 29.69 in 10.0 mi NE 11.5 mph - N/A   Overcast
10:53 AM 37.0 °F 31.6 °F 21.0 °F 52% 29.70 in 10.0 mi NE 6.9 mph 16.1 mph N/A   Overcast
11:53 AM 37.0 °F 28.9 °F 21.0 °F 52% 29.71 in 10.0 mi ENE 12.7 mph - N/A   Overcast
12:53 PM 36.0 °F 29.6 °F 24.1 °F 62% 29.74 in 5.0 mi ENE 8.1 mph - 0.00 in Snow Light Snow
1:41 PM 35.6 °F 31.7 °F 24.8 °F 65% 29.75 in 2.5 mi SW 4.6 mph - 0.00 in Snow Light Snow
1:45 PM 33.8 °F 30.8 °F 24.8 °F 70% 29.75 in 1.2 mi Variable 3.5 mph - 0.00 in Snow Light Snow
1:53 PM 34.0 °F - 26.1 °F 73% 29.76 in 0.8 mi Calm Calm - 0.00 in Snow Light Snow
2:04 PM 33.8 °F - 28.4 °F 81% 29.76 in 1.2 mi Calm Calm - 0.00 in Snow Light Snow
2:13 PM 33.8 °F - 28.4 °F 81% 29.75 in 0.8 mi Calm Calm - 0.00 in Snow Light Snow
2:20 PM 33.8 °F - 28.4 °F 81% 29.76 in 1.2 mi Calm Calm - 0.00 in Snow Light Snow
2:24 PM 33.8 °F - 28.4 °F 81% 29.76 in 2.0 mi Calm Calm - 0.00 in Snow Light Snow
2:35 PM 33.8 °F - 28.4 °F 81% 29.75 in 4.0 mi Calm Calm - 0.00 in Snow Light Snow
2:44 PM 33.8 °F 30.8 °F 28.4 °F 81% 29.76 in 5.0 mi SSE 3.5 mph - 0.00 in Snow Light Snow
2:53 PM 34.0 °F - 28.9 °F 82% 29.76 in 3.0 mi Calm Calm - 0.00 in Snow Light Snow
3:11 PM 35.6 °F - 28.4 °F 75% 29.75 in 2.5 mi Calm Calm - 0.00 in Snow Light Snow
3:33 PM 33.8 °F - 28.4 °F 81% 29.75 in 2.0 mi Calm Calm - 0.00 in Snow Light Snow
3:39 PM 33.8 °F 29.6 °F 28.4 °F 81% 29.75 in 3.0 mi ESE 4.6 mph - 0.00 in Snow Light Snow
3:53 PM 35.1 °F - 28.9 °F 78% 29.75 in 10.0 mi Calm Calm - 0.00 in   Overcast
4:41 PM 35.6 °F - 28.4 °F 75% 29.74 in 2.5 mi Calm Calm - 0.00 in Snow Light Snow
4:49 PM 33.8 °F - 28.4 °F 81% 29.74 in 1.5 mi Calm Calm - 0.01 in Snow Light Snow
4:53 PM 34.0 °F - 28.0 °F 79% 29.74 in 1.8 mi Calm Calm - 0.01 in Snow Light Snow
5:04 PM 33.8 °F - 28.4 °F 81% 29.74 in 2.0 mi Calm Calm - 0.00 in Snow Light Snow
5:46 PM 33.8 °F - 28.4 °F 81% 29.74 in 3.0 mi Calm Calm - 0.00 in Snow Light Snow
5:53 PM 33.1 °F - 28.9 °F 85% 29.74 in 3.0 mi Calm Calm - 0.00 in Snow Light Snow
6:09 PM 33.8 °F 30.8 °F 30.2 °F 87% 29.73 in 2.5 mi SSW 3.5 mph - 0.00 in Snow Light Snow
6:40 PM 33.8 °F - 30.2 °F 87% 29.73 in 3.0 mi Calm Calm - 0.00 in Snow Light Snow
6:53 PM 33.1 °F 30.0 °F 30.0 °F 89% 29.72 in 3.0 mi SSE 3.5 mph - 0.00 in Snow Light Snow
7:13 PM 33.8 °F - 30.2 °F 87% 29.71 in 2.5 mi Calm Calm - 0.00 in Snow Light Snow
7:21 PM 33.8 °F - 30.2 °F 87% 29.71 in 4.0 mi Calm Calm - 0.00 in Snow Light Snow
7:53 PM 34.0 °F - 30.0 °F 85% 29.70 in 6.0 mi Calm Calm - 0.00 in Snow Light Snow
8:53 PM 34.0 °F 31.0 °F 30.9 °F 89% 29.68 in 10.0 mi NE 3.5 mph - 0.00 in   Overcast
9:41 PM 33.8 °F - 30.2 °F 87% 29.67 in 5.0 mi Calm Calm - 0.00 in Snow Light Snow
9:53 PM 34.0 °F - 30.0 °F 85% 29.68 in 4.0 mi Calm Calm - 0.00 in Snow Light Snow
10:21 PM 33.8 °F - 28.4 °F 81% 29.67 in 2.5 mi Calm Calm - 0.00 in Snow Light Snow
10:31 PM 33.8 °F 30.8 °F 28.4 °F 81% 29.66 in 4.0 mi Variable 3.5 mph - 0.00 in Snow Light Snow
10:51 PM 33.8 °F 29.6 °F 28.4 °F 81% 29.66 in 4.0 mi NE 4.6 mph - 0.00 in Snow Light Snow
10:53 PM 33.1 °F - 28.9 °F 85% 29.66 in 4.0 mi Calm Calm - 0.00 in Snow Light Snow
11:13 PM 33.8 °F 29.6 °F 28.4 °F 81% 29.66 in 3.0 mi Variable 4.6 mph - 0.00 in Snow Light Snow
11:37 PM 33.8 °F 28.6 °F 28.4 °F 81% 29.65 in 5.0 mi North 5.8 mph - 0.00 in Snow Light Snow
11:53 PM 34.0 °F 27.2 °F 27.0 °F 75% 29.66 in 7.0 mi North 8.1 mph - 0.00 in Snow Light Snow